Wind_Speed
30 28 25 22 21 19 18 17 15 13 13 13 12 11 6 5 6 4 2 4 10 8 8 10 17 21 22 11 4 3 17 19 14 18 13 10 11 4 2 5 10 10 10 6 10
29 27 23 22 21 20 18 16 14 12 13 12 12 8 9 11 6 1 4 13 8 4 8 12 14 16 13 4 4 7 4 17 14 13 10 9 2 6 8 4 8 12 6 2 7
27 24 21 19 18 18 16 16 13 13 13 12 11 12 17 11 3 7 13 8 6 7 10 14 18 13 5 2 5 7 12 16 21 12 14 9 4 10 8 6 4 3 2 6 8
24 20 18 17 16 15 15 15 14 13 13 13 14 21 16 8 4 4 9 9 9 11 15 20 12 6 2 3 3 7 5 9 18 19 11 8 9 6 9 7 2 3 7 2 4
20 17 16 15 14 14 15 15 13 13 14 15 19 23 14 7 7 3 12 13 16 13 13 9 3 1 4 6 4 3 6 5 13 18 14 11 13 6 10 8 6 2 7 4 5
17 15 14 14 14 15 16 14 14 14 16 17 22 22 13 5 5 10 13 11 4 2 3 1 1 7 8 8 7 7 5 6 13 16 11 13 7 12 7 6 9 5 4 4 7
14 13 14 15 16 16 15 14 16 16 16 18 22 19 6 5 9 11 15 13 11 8 8 8 10 9 9 12 7 10 9 5 7 5 6 12 8 12 11 6 4 5 3 6 3
11 11 14 16 16 16 16 17 17 16 15 19 20 16 1 4 6 14 13 12 15 10 11 13 14 11 3 8 10 10 10 11 7 6 5 4 7 11 15 11 9 6 5 7 9
10 11 14 16 18 19 20 19 17 16 16 18 16 8 3 7 7 18 14 9 10 10 4 12 14 7 6 7 10 10 11 14 14 7 4 2 7 19 10 9 6 9 10 8 11
12 15 17 20 22 22 21 19 17 18 18 19 15 3 5 4 7 11 14 9 9 10 10 13 10 5 6 6 6 5 8 17 15 11 7 5 8 13 10 7 1 7 14 24 22
17 19 21 25 25 24 21 19 19 19 19 9 4 8 0 6 7 11 13 14 15 13 9 3 2 2 8 8 5 3 9 10 15 8 3 7 4 8 5 7 12 11 11 30 23
19 23 26 27 26 25 25 19 15 15 8 9 12 9 10 11 7 9 12 13 13 8 1 4 5 4 2 1 0 5 4 9 7 5 8 4 4 11 11 11 11 17 20 19 22
23 27 28 27 25 26 12 18 18 10 7 10 6 6 17 13 6 13 16 12 6 2 2 6 4 1 6 3 4 3 2 2 3 3 6 7 6 13 15 16 17 18 23 26 27
26 27 28 25 26 19 14 20 21 14 7 7 9 6 10 10 10 7 12 12 5 3 9 5 3 2 6 1 1 3 4 6 9 8 7 9 6 20 21 20 16 15 16 19 21
27 28 26 25 25 19 19 19 21 8 3 11 7 7 5 6 3 4 12 11 2 1 7 5 7 6 4 4 4 3 6 9 8 9 9 11 11 22 23 22 19 18 16 16 18
24 26 25 23 23 18 17 21 15 3 4 9 7 10 7 5 5 1 12 9 5 6 3 6 6 5 5 2 4 4 6 9 11 10 4 11 11 12 29 25 22 22 20 14 17
23 24 24 22 22 19 21 19 4 0 10 10 14 10 7 8 7 9 10 9 6 8 5 9 2 7 3 4 2 5 5 5 3 2 4 13 7 4 10 24 22 22 17 12 10
22 23 23 20 18 19 21 13 1 6 7 10 15 13 10 10 13 9 7 10 11 9 12 13 6 1 5 5 1 6 7 4 0 1 6 13 6 8 11 13 10 7 9 9 9
21 21 22 21 18 19 21 9 3 4 12 13 13 13 12 6 7 6 10 5 6 8 5 8 5 4 2 4 4 4 7 3 2 3 3 2 10 7 6 5 9 13 11 9 8
19 19 19 18 19 20 23 8 2 8 8 13 14 13 11 9 9 6 4 4 3 8 8 8 7 2 8 6 9 10 8 3 2 1 2 6 6 4 6 8 7 6 6 9 9
19 18 19 19 21 22 22 6 6 9 15 14 11 9 5 12 8 10 4 5 8 7 6 12 6 6 4 4 1 4 3 1 3 2 4 1 3 5 3 3 2 8 4 4 9
19 16 17 21 21 23 22 5 6 7 13 14 8 10 6 11 6 7 9 6 8 10 7 8 8 7 5 5 5 4 1 2 2 3 3 3 8 10 6 9 6 6 11 15 19
19 13 12 21 21 21 12 7 5 6 14 13 15 12 8 12 6 8 11 8 11 9 8 11 8 7 3 1 3 4 2 8 8 11 14 4 8 15 22 20 18 18 19 13 14
18 14 13 19 17 18 10 10 12 13 12 10 10 13 13 10 7 11 10 10 7 7 8 8 10 5 5 1 4 5 8 9 10 13 14 18 20 21 18 16 11 8 13 16 18
13 12 13 25 17 15 14 7 13 16 15 15 9 9 13 9 6 8 7 9 7 8 7 6 9 8 9 8 10 10 12 17 18 16 14 18 12 4 7 12 11 13 13 16 20
13 14 12 11 19 17 16 14 11 8 11 10 5 9 11 11 11 10 7 4 5 6 9 9 7 7 7 6 8 16 5 4 0 6 9 11 7 14 16 16 18 22 22 24 33
12 12 19 11 23 17 14 14 15 14 8 11 10 15 15 14 14 15 13 10 9 7 8 7 5 4 4 5 12 4 5 8 12 12 12 8 10 17 21 25 26 26 27 33 41
Wind_Direction
290 287 283 273 264 257 250 243 245 245 234 229 233 229 212 185 158 170 220 155 138 135 134 147 148 152 162 167 19 305 270 274 250 166 147 153 164 183 102 166 196 233 263 80 147
288 284 278 268 256 247 241 234 235 233 222 217 214 192 159 135 116 228 186 136 127 138 130 136 139 155 169 78 324 278 202 99 110 136 122 125 134 208 217 271 201 220 230 222 181
286 281 273 261 247 238 229 224 222 221 213 201 186 159 141 127 92 16 143 112 106 128 128 136 141 151 142 85 42 96 96 107 111 101 114 100 120 128 164 161 357 160 143 163 189
283 275 264 250 238 225 216 213 213 209 191 183 164 149 145 125 98 355 147 113 99 126 126 122 124 128 132 199 196 103 92 125 121 114 120 164 136 101 169 128 103 322 320 163 187
277 264 249 236 223 210 203 202 201 189 177 172 159 156 152 127 83 203 157 126 92 104 124 130 128 335 230 211 173 129 140 191 164 153 145 144 136 137 155 157 141 246 299 348 354
268 247 231 218 208 196 192 190 182 173 171 165 158 162 154 92 107 201 159 147 103 166 186 246 185 184 162 167 205 155 177 137 144 179 180 174 178 156 192 216 180 206 288 335 5
254 231 213 200 194 184 180 173 166 166 167 163 165 171 151 141 164 183 173 184 174 160 179 202 164 104 134 134 129 140 153 143 156 123 102 159 178 169 192 235 177 232 232 258 300
233 209 195 190 181 170 161 159 156 158 161 160 165 165 97 12 202 180 177 198 182 169 184 182 158 135 81 168 150 185 197 174 171 200 202 299 208 193 206 218 190 239 242 219 248
201 185 179 169 163 155 153 152 150 149 149 153 154 160 58 59 161 189 176 144 217 193 201 154 155 144 173 166 173 206 230 189 166 182 183 356 70 166 188 200 227 210 245 203 198
174 167 159 154 152 147 146 143 143 147 145 143 149 143 158 178 198 192 177 174 160 139 127 142 155 164 151 197 222 306 322 181 168 178 175 186 169 177 204 254 269 239 212 206 198
161 156 152 149 146 145 141 139 145 145 129 124 169 89 46 224 166 173 171 163 143 144 135 76 254 132 129 139 111 30 41 123 137 150 341 226 169 194 140 163 199 201 206 210 208
156 154 147 148 147 142 131 134 143 144 148 112 159 199 167 118 143 167 158 141 146 132 137 221 205 192 199 340 131 59 31 80 84 9 311 146 257 233 194 200 192 217 219 209 207
152 151 150 151 148 144 151 153 140 143 147 133 133 165 146 126 132 154 147 148 164 217 162 249 153 121 128 333 129 352 235 201 170 287 260 256 215 203 190 200 196 201 215 225 231
155 153 155 151 154 159 147 142 142 142 140 173 152 132 162 153 173 191 170 145 178 304 167 169 256 93 112 302 184 38 219 264 273 300 288 319 218 201 200 192 189 183 208 227 237
158 161 161 165 168 172 149 148 161 147 104 123 171 155 161 105 114 74 161 142 92 247 180 96 89 108 221 243 286 266 292 298 291 279 289 254 257 208 182 178 180 200 214 242 267
164 168 167 175 180 168 160 160 168 211 155 162 183 172 156 122 118 186 156 143 142 132 140 175 195 196 219 235 63 36 348 301 275 278 266 356 299 171 180 188 202 225 235 250 259
172 175 180 185 184 172 164 160 177 263 139 159 142 139 141 122 114 100 127 143 133 160 151 119 54 45 89 112 137 3 9 3 58 318 221 359 50 3 254 226 232 231 237 263 259
175 181 188 190 181 169 162 162 115 128 170 144 155 152 136 138 134 151 161 191 173 167 179 162 157 299 27 128 63 57 26 70 77 45 307 321 96 119 145 155 178 219 259 284 272
178 186 190 191 180 169 165 170 48 85 145 147 149 151 153 175 151 149 155 176 205 178 121 125 106 94 51 69 83 38 56 24 50 15 324 44 107 121 233 255 284 289 277 268 248
183 190 187 189 181 173 176 167 206 133 127 164 167 186 187 180 171 176 195 185 140 178 171 117 118 153 91 86 59 58 68 105 67 91 304 338 101 52 239 322 335 242 276 213 282
184 191 187 183 180 181 187 177 226 189 159 178 216 203 259 165 180 170 180 198 166 163 176 159 134 111 103 81 59 84 68 74 297 343 177 17 92 56 117 155 128 249 290 317 263
179 187 188 187 186 191 186 236 214 237 206 187 165 171 189 161 156 176 193 202 179 166 157 154 147 106 139 66 27 86 101 85 95 301 326 343 277 312 288 224 234 293 270 280 288
171 165 183 194 191 192 178 215 211 212 180 182 173 173 159 173 146 195 194 211 188 183 153 150 136 142 150 221 64 72 293 313 293 261 256 204 255 305 305 302 307 272 275 276 269
161 190 188 194 181 184 176 217 186 176 177 176 206 197 165 188 191 202 207 192 186 177 164 161 151 148 165 108 252 274 276 278 291 291 291 268 287 302 287 314 292 231 261 265 271
165 211 217 190 167 181 189 218 201 196 195 194 187 172 182 165 191 199 206 192 198 194 192 193 177 193 214 249 268 265 283 286 276 282 294 305 294 332 294 275 267 261 266 268 281
168 167 180 169 170 167 197 196 209 187 217 195 165 159 194 186 182 201 228 211 215 213 208 208 221 234 259 254 275 301 307 88 212 286 283 288 303 288 274 266 266 272 282 292 309
153 161 170 180 186 180 191 189 193 201 211 183 176 189 196 197 195 194 210 204 239 234 225 231 241 274 259 269 305 168 218 254 269 267 271 280 273 262 265 268 275 280 292 304 314
Height
3123 3122 3121 3121 3121 3122 3123 3125 3127 3128 3130 3132 3133 3134 3136 3137 3138 3138 3138 3139 3140 3141 3142 3142 3144 3148 3152 3157 3158 3158 3159 3157 3158 3158 3161 3162 3164 3166 3167 3168 3169 3170 3172 3173 3174
3118 3117 3116 3116 3116 3117 3120 3122 3124 3126 3128 3129 3131 3134 3136 3137 3138 3138 3139 3138 3141 3143 3143 3144 3147 3151 3154 3156 3157 3158 3159 3157 3156 3158 3161 3162 3164 3166 3169 3170 3169 3171 3173 3174 3175
3112 3111 3111 3111 3112 3114 3117 3120 3122 3124 3126 3128 3131 3133 3136 3137 3138 3138 3139 3141 3142 3144 3145 3145 3147 3149 3152 3155 3158 3158 3157 3157 3156 3159 3160 3163 3167 3167 3169 3170 3169 3171 3173 3174 3174
3107 3106 3106 3107 3108 3111 3114 3117 3120 3122 3124 3127 3131 3133 3135 3137 3140 3139 3141 3143 3144 3145 3147 3149 3151 3151 3153 3154 3157 3157 3157 3158 3159 3158 3162 3166 3170 3168 3168 3170 3170 3171 3173 3174 3175
3102 3102 3103 3104 3106 3109 3112 3115 3119 3121 3124 3127 3130 3133 3135 3138 3139 3140 3142 3144 3146 3148 3150 3152 3151 3152 3152 3156 3156 3156 3157 3158 3159 3158 3163 3167 3168 3169 3170 3171 3172 3171 3173 3173 3173
3098 3098 3099 3102 3104 3108 3110 3114 3118 3121 3124 3127 3131 3133 3136 3138 3139 3141 3143 3143 3144 3146 3147 3149 3152 3154 3155 3155 3155 3157 3159 3159 3159 3161 3165 3167 3168 3168 3170 3172 3172 3173 3172 3172 3172
3095 3095 3097 3100 3103 3107 3110 3114 3118 3121 3124 3127 3131 3134 3136 3137 3136 3138 3142 3143 3144 3145 3145 3147 3150 3151 3153 3154 3156 3157 3158 3159 3161 3162 3164 3166 3166 3167 3169 3170 3172 3173 3173 3173 3173
3093 3094 3096 3099 3103 3107 3110 3115 3118 3122 3125 3128 3132 3135 3136 3136 3137 3140 3141 3144 3146 3144 3146 3149 3150 3151 3151 3154 3157 3158 3159 3159 3161 3163 3164 3164 3163 3167 3168 3170 3172 3173 3174 3173 3174
3091 3093 3096 3100 3103 3107 3111 3115 3119 3123 3126 3130 3133 3135 3135 3136 3137 3138 3142 3143 3145 3148 3149 3150 3152 3152 3154 3154 3156 3156 3156 3159 3160 3162 3162 3163 3159 3164 3168 3169 3171 3172 3173 3175 3175
3091 3094 3097 3100 3104 3108 3113 3117 3120 3124 3127 3130 3133 3136 3135 3137 3137 3140 3142 3144 3146 3149 3150 3152 3153 3153 3154 3155 3156 3156 3154 3156 3158 3161 3161 3162 3166 3165 3167 3168 3169 3168 3171 3169 3173
3091 3094 3098 3102 3106 3111 3115 3118 3124 3127 3128 3131 3134 3134 3136 3136 3138 3139 3142 3145 3146 3149 3149 3152 3153 3154 3155 3155 3156 3156 3154 3153 3156 3158 3160 3162 3164 3164 3164 3165 3166 3166 3165 3167 3169
3092 3096 3099 3104 3108 3112 3116 3120 3123 3128 3130 3129 3133 3134 3135 3136 3139 3139 3143 3146 3147 3147 3149 3152 3152 3153 3153 3154 3154 3153 3154 3155 3156 3157 3159 3161 3163 3162 3162 3162 3164 3165 3165 3166 3167
3093 3098 3102 3106 3110 3115 3118 3120 3122 3128 3130 3132 3133 3133 3135 3137 3139 3140 3143 3143 3146 3148 3148 3150 3152 3152 3152 3151 3151 3152 3153 3155 3156 3157 3158 3161 3163 3160 3161 3160 3160 3161 3162 3162 3163
3095 3099 3105 3109 3115 3117 3119 3120 3124 3128 3130 3132 3133 3135 3136 3136 3139 3140 3142 3145 3146 3147 3146 3149 3150 3150 3151 3150 3152 3153 3154 3155 3156 3157 3158 3158 3159 3157 3156 3157 3157 3157 3158 3159 3161
3097 3102 3106 3110 3113 3115 3119 3121 3125 3128 3130 3133 3134 3135 3135 3138 3140 3140 3142 3144 3146 3147 3148 3151 3150 3151 3151 3152 3154 3154 3154 3155 3155 3155 3156 3154 3156 3151 3153 3154 3155 3156 3156 3156 3156
3098 3103 3106 3110 3113 3116 3119 3122 3127 3130 3129 3131 3132 3134 3136 3138 3140 3140 3142 3145 3146 3147 3148 3151 3152 3153 3152 3153 3154 3154 3154 3153 3153 3154 3154 3153 3151 3150 3150 3150 3153 3153 3154 3155 3155
3100 3103 3107 3110 3113 3116 3119 3124 3128 3125 3129 3131 3132 3135 3137 3139 3140 3142 3144 3145 3146 3149 3150 3151 3152 3152 3152 3152 3154 3154 3152 3150 3152 3154 3153 3150 3150 3157 3154 3151 3150 3150 3151 3152 3153
3099 3103 3107 3112 3115 3117 3121 3126 3126 3126 3127 3129 3133 3136 3138 3140 3141 3144 3145 3145 3145 3147 3149 3149 3154 3152 3152 3152 3152 3152 3153 3153 3157 3159 3154 3150 3153 3158 3155 3153 3154 3154 3152 3152 3152
3099 3103 3107 3111 3115 3118 3122 3124 3125 3127 3128 3130 3134 3137 3139 3141 3142 3144 3144 3144 3145 3146 3147 3149 3152 3153 3153 3153 3154 3153 3153 3155 3155 3156 3154 3154 3157 3156 3156 3156 3153 3152 3154 3151 3149
3098 3102 3107 3111 3114 3118 3122 3123 3125 3126 3129 3132 3134 3136 3136 3139 3142 3143 3144 3144 3145 3146 3146 3148 3152 3153 3153 3153 3154 3154 3155 3156 3156 3159 3158 3153 3155 3154 3154 3154 3153 3153 3153 3151 3149
3098 3102 3106 3110 3114 3117 3119 3124 3125 3127 3129 3132 3133 3135 3135 3137 3139 3141 3143 3144 3144 3145 3146 3148 3150 3154 3153 3153 3154 3155 3155 3155 3156 3157 3157 3160 3157 3155 3154 3153 3154 3153 3150 3148 3148
3097 3101 3105 3109 3113 3115 3119 3123 3124 3126 3128 3130 3132 3133 3135 3136 3138 3139 3141 3143 3144 3144 3145 3147 3149 3151 3153 3154 3154 3153 3154 3155 3155 3157 3157 3158 3158 3154 3152 3150 3151 3149 3148 3145 3143
3096 3101 3104 3107 3110 3114 3119 3121 3122 3124 3126 3129 3130 3132 3134 3136 3138 3139 3141 3142 3142 3143 3144 3146 3148 3150 3153 3155 3154 3153 3154 3154 3154 3153 3153 3156 3154 3151 3148 3148 3146 3144 3143 3139 3137
3096 3099 3102 3105 3110 3113 3117 3119 3122 3124 3126 3128 3129 3132 3134 3135 3136 3137 3139 3140 3142 3143 3144 3145 3146 3148 3150 3152 3151 3151 3151 3151 3151 3150 3149 3148 3147 3146 3143 3140 3138 3140 3137 3135 3134
3094 3097 3100 3102 3107 3111 3116 3119 3120 3122 3124 3126 3128 3131 3132 3134 3135 3136 3138 3139 3140 3141 3143 3144 3145 3146 3147 3148 3148 3147 3147 3146 3146 3146 3146 3144 3144 3141 3140 3137 3134 3134 3133 3132 3130
3092 3094 3097 3102 3107 3110 3114 3117 3119 3121 3123 3125 3128 3130 3131 3133 3134 3134 3136 3137 3138 3140 3140 3142 3143 3144 3145 3144 3144 3143 3142 3141 3142 3142 3141 3140 3141 3135 3134 3132 3130 3129 3127 3125 3122
3090 3093 3097 3101 3105 3109 3112 3116 3119 3119 3122 3124 3127 3127 3128 3131 3132 3133 3135 3136 3136 3138 3139 3140 3141 3141 3140 3141 3140 3140 3138 3138 3138 3138 3137 3136 3134 3131 3128 3126 3126 3124 3122 3118 3114